GONETS-M 24 (54151 NORAD) Tracking and Keplerian Element Data

This shows tracking and keplerian element data for the satellite.

Feedback or suggestion? Click here.




ElementValue
Catalog54151
NameGONETS-M 24
Epoch Orbit1035
Epoch Day14.11036487
Epoch Year2023
RAAN44.9899
Inclination82.4981
Eccentricity0.0017235
Argument of Perigee80.1779
Mean Anonmoly280.1258
Mean Motion12.42875885
Decay Rate1E-07
L11 54151U 22139B 23014.11036487 .00000010 00000+0 00000+0 0 9992
L22 54151 82.4981 44.9899 0017235 80.1779 280.1258 12.42875885 10358



Live tracking and technical data element details for GONETS-M 24 (NORAD 54151). GONETS-M 24 can be tracked NOW for your location showing map with azimuth and elevation plus other details from your city location.







IsCatalogInMostPopularTable: catalog: 54151, numindb: 14
Update: records affected: 1



GetName: 54151 GONETS-M 24

Hit Count: updated at: Fri, 27 Jan 2023 21:50:27 GMT